This is the latest recevied weather packets stored in our database for station/object KD0KHX-10. If no packets are shown the sender has not sent any weather packets the latest 1 day(s).
| Time | Temp. | Humidity | Pressure | Rain* | Wind** | Luminosity | Snow |
|---|---|---|---|---|---|---|---|
| 1778002803 | 6.67° C | 80% | 1009.3 hPa | 0 mm | 0.89 m/s, 83° | - | - |
| 1778002503 | 6.67° C | 81% | 1009.3 hPa | 0 mm | 0.89 m/s, 91° | - | - |
| 1778002203 | 6.67° C | 81% | 1009.4 hPa | 0 mm | 0.89 m/s, 92° | - | - |
| 1778001903 | 6.67° C | 81% | 1009.3 hPa | 0 mm | 0.45 m/s, 99° | - | - |
| 1778001603 | 6.67° C | 80% | 1009.4 hPa | 0 mm | 0.45 m/s, 96° | - | - |
| 1778001438 | 6.67° C | 80% | 1009.5 hPa | 0 mm | 0.45 m/s, 91° | - | - |
| 1778001272 | 6.67° C | 81% | 1009.5 hPa | 0 mm | 0.89 m/s, 84° | - | - |
| 1778000703 | 6.11° C | 80% | 1009.6 hPa | 0 mm | 0.45 m/s, 108° | - | - |
| 1778000403 | 6.11° C | 80% | 1009.7 hPa | 0 mm | 0.45 m/s, 105° | - | - |
| 1778000373 | 6.11° C | 80% | 1009.7 hPa | 0 mm | 0.45 m/s, 101° | - | - |
| 1777999803 | 6.11° C | 80% | 1009.7 hPa | 0 mm | 0.89 m/s, 128° | - | - |
| 1777999503 | 6.11° C | 80% | 1009.6 hPa | 0 mm | 1.34 m/s, 105° | - | - |
| 1777999203 | 6.11° C | 80% | 1009.6 hPa | 0 mm | 2.24 m/s, 101° | - | - |
| 1777998903 | 6.11° C | 79% | 1009.5 hPa | 0 mm | 2.24 m/s, 106° | - | - |
| 1777998603 | 6.11° C | 79% | 1009.4 hPa | 0 mm | 1.79 m/s, 115° | - | - |
| 1777998438 | 6.11° C | 79% | 1009.4 hPa | 0 mm | 1.79 m/s, 114° | - | - |
| 1777998003 | 6.11° C | 77% | 1009.3 hPa | 0 mm | 2.24 m/s, 110° | - | - |
| 1777997838 | 6.11° C | 77% | 1009.3 hPa | 0 mm | 2.68 m/s, 117° | - | - |
| 1777997537 | 5.56° C | 76% | 1009.2 hPa | 0 mm | 3.13 m/s, 122° | - | - |
| 1777997103 | 5.56° C | 75% | 1009.1 hPa | 0 mm | 3.13 m/s, 106° | - | - |
| 1777996803 | 5.56° C | 74% | 1009.1 hPa | 0.25 mm | 3.58 m/s, 101° | - | - |
| 1777996773 | 5.56° C | 74% | 1009.1 hPa | 0.25 mm | 3.58 m/s, 101° | - | - |
| 1777996337 | 5.56° C | 72% | 1009 hPa | 0.25 mm | 3.13 m/s, 98° | - | - |
| 1777996173 | 6.11° C | 72% | 1009 hPa | 0.25 mm | 3.13 m/s, 97° | - | - |
| 1777995736 | 6.11° C | 71% | 1008.8 hPa | 0.25 mm | 3.13 m/s, 98° | - | - |
* Rain latest hour (hover to see other rain measurements)
** Current wind speed in m/s (hover to see current wind gust speed)